STARLINK-1408, 45688

Orbit data source: Space-Track

STARLINK-1408, 45688 is a payload satellite owned by SpaceX/Seattle (US) in LEO that was launched on Thu, 04 Jun 2020 UTC via an FALCON 9 launch vehicle from the Air Force Eastern Test Range (AFETR). Payloads include a variety of satellites, spacecraft, and rockets equipped with specific instruments for various scientific and technological missions. These include communications satellites like Starlink; space stations such as the ISS; scientific satellites like the Hubble; Earth observation satellites from companies like Planet Labs, Umbra, and HawkEye 360; GPS; miniature CubeSats for education and research; and military/defense satellites.

Loading next visibility...
STARLINK-1408 details
Identifier
45688, 2020-035AH
Orbit
LEO
Last TLE update10 hours ago
Origin
Flag of USSpaceX/Seattle (US)
ManufacturerSpaceX/Seattle
MissionPartially operational Commercial Communications
Bus & MotorSTARLINK, Unknown motor
Mass260 kg wet, ~248 kg dry
Launch date (UTC)
2020-06-04 (5 years ago)
Launch vehicle
FALCON 9
Launch site
Air Force Eastern Test Range (AFETR)
Object type
Payload
Rocket body
Debris
Shape & HBRBox + 1 Pan, 8.86 m
Radar Cross Section13.562 m², Large (>1 m²)

Expand to show TLE details & history

TLE from 10 hours ago
0 STARLINK-1408
1 45688U 20035AH  24361.00001157  .00121220  00000-0  85106-3 0  9992
2 45688  53.0667  96.4875 0003637 174.1493  45.3668 15.73318354254190
Epoch: 2024-12-26T00:00Z
Definitive object data (Epoch: 2024-12-26T00:00:00.999Z)
Latitude-30.8031°
Longitude-152.03677°
Altitude357.147 km
Speed7.696 km/s
True Right ascension20h 11m 48s
True Declination-30° 38' 35"
Sunlit
Object was in daylight at TLE epoch
Visualization TLE readout
Latitude33.69315°
Longitude29.33631°
Altitude353.092 km
Speed7.701 km/s
Apparent Right ascension04h 36m 14s
Apparent Declination-13° 07' 60"
Sunlit
Object is in full shadow
Visualization observer readout
Local Sidereal Time09:16:45
Azimuth247.113° WSW
Elevation6.202°
Doppler factor1
Orbital elements
Apogee altitude352.144 km
Perigee altitude347.25 km
Semi-major axis6,727.834 km
Eccentricity0.0003637
Inclination53.0667°
RAAN96.4875°
Arg. of periapsis174.1493°
True anomaly45.39647°
Mean anomaly45.3668°
Eccentric anomaly45.38163°
Mean motion3.93306 °/min
BSTAR0.00085106
Orbital period91.53 mins
Loading maneuver chart data...

STARLINK-1408 Visibility forecast

Observer location: undefined°, undefined

Span
Click to sort rows by Start time (UTC) header in descending order
Start Az.
Max El. time (UTC)
Max El. Az.
Max El.
End time (UTC)
End Az.
5 mins2024-12-26 09:56:39.825Z252.04° W2024-12-26 09:58:39.825Z294.379° NW32.144°2024-12-26 10:01:39.825Z37.078° NE
4 mins2024-12-26 16:21:39.825Z299.495° NW2024-12-26 16:22:39.825Z261.519° W42.53°2024-12-26 16:25:39.825Z137.315° SSE
4 mins2024-12-27 08:47:39.825Z204.01° SW2024-12-27 08:49:39.825Z104.916° ESE35.227°2024-12-27 08:51:39.825Z61.898° ENE
|